DW4277 Weather Reports


Display with metric or nautical units.
time (UTC)temp
F
wind
direction
speed
MPH
gust
MPH
rain 1hr
in
rain 24hr
in
rain mn
in
humidity
%
barometer
mb
20260508191521 63 93 0.0 0.0 0.00 0.04 0.00 55 1015.2
20260508190021 63 93 0.0 0.0 0.00 0.04 0.00 55 1015.0
20260508184526 64 93 0.0 0.0 0.00 0.05 0.00 53 1014.8
20260508183021 64 93 0.0 0.0 0.00 0.05 0.00 52 1014.7
20260508181521 65 93 0.0 0.0 0.00 0.05 0.00 51 1014.4
20260508180019 66 92 1.0 12.0 0.00 0.05 0.00 50 1014.2
20260508174522 66 90 0.0 7.0 0.00 0.09 0.00 49 1014.1
20260508173019 67 92 1.0 12.0 0.00 0.09 0.00 47 1013.9
20260508171529 68 84 0.0 9.0 0.00 0.09 0.00 47 1013.9
20260508170016 68 80 0.0 10.0 0.00 0.09 0.00 47 1013.8
20260508164521 69 55 3.0 14.0 0.00 0.10 0.00 45 1013.8
20260508163015 70 79 3.0 14.0 0.00 0.10 0.00 43 1013.8
20260508161527 69 97 0.0 0.0 0.00 0.10 0.00 45 1013.7
20260508160014 70 97 0.0 6.0 0.00 0.10 0.00 45 1013.6
20260508154515 70 96 2.0 10.0 0.00 0.10 0.00 45 1013.6
20260508153013 71 80 3.0 12.0 0.00 0.10 0.00 47 1013.6
20260508151513 71 235 0.0 5.0 0.00 0.10 0.00 45 1013.8
20260508150019 70 235 0.0 7.0 0.00 0.10 0.00 47 1013.8
20260508144524 70 82 5.0 15.0 0.00 0.10 0.00 47 1014.0
20260508143024 70 154 0.0 14.0 0.00 0.10 0.00 47 1014.1
20260508141519 70 23 0.0 16.0 0.00 0.10 0.00 45 1014.2
20260508140009 71 94 0.0 4.0 0.00 0.10 0.00 46 1014.2
20260508134509 70 94 5.0 12.0 0.00 0.10 0.00 46 1014.2
20260508133009 71 58 0.0 8.0 0.00 0.10 0.00 46 1014.3
20260508131508 71 77 3.0 8.0 0.00 0.10 0.00 46 1014.4
20260508130010 71 67 4.0 12.0 0.00 0.10 0.00 46 1014.6
20260508124504 71 71 0.0 7.0 0.00 0.10 0.00 46 1014.9
20260508123005 70 30 3.0 25.0 0.00 0.10 0.00 47 1014.7
20260508121505 70 42 4.0 22.0 0.00 0.10 0.00 46 1014.7
20260508120005 69 359 2.0 18.0 0.00 0.10 0.00 47 1014.8
20260508114504 70 12 3.0 14.0 0.00 0.10 0.00 47 1014.8
20260508113125 69 21 7.0 18.0 0.00 0.10 0.00 47 1014.9
20260508111556 68 344 0.0 11.0 0.00 0.10 0.00 49 1014.9
20260508110054 67 71 3.0 17.0 0.00 0.10 0.00 51 1015.0
20260508104558 68 5 1.0 15.0 0.00 0.10 0.00 50 1015.2
20260508103101 66 21 10.0 24.0 0.00 0.10 0.00 52 1015.5
20260508101550 66 354 10.0 27.0 0.00 0.10 0.00 53 1015.4
20260508100047 66 17 1.0 22.0 0.00 0.10 0.00 53 1015.6
20260508094549 66 24 3.0 16.0 0.00 0.10 0.00 54 1015.8
20260508093041 64 7 2.0 18.0 0.00 0.10 0.00 55 1015.8
20260508091539 64 345 0.0 21.0 0.00 0.10 0.00 57 1015.8
20260508090044 64 14 9.0 22.0 0.00 0.10 0.00 58 1015.9
20260508084532 63 34 9.0 18.0 0.00 0.10 0.00 58 1015.8
20260508083036 63 32 10.0 22.0 0.00 0.10 0.00 58 1015.8
20260508081525 62 342 0.0 15.0 0.00 0.10 0.00 60 1015.8
20260508080020 61 11 4.0 22.0 0.00 0.10 0.00 59 1015.8
20260508074519 61 2 1.0 19.0 0.00 0.10 0.00 64 1015.8
20260508073012 61 12 7.0 24.0 0.00 0.10 0.00 63 1015.8
20260508071508 60 16 2.0 15.0 0.00 0.10 0.00 65 1015.8
20260508070003 59 329 9.0 19.0 0.00 0.10 0.00 68 1015.8
20260508064608 59 11 10.0 17.0 0.00 0.10 0.00 70 1015.7
20260508063055 58 338 10.0 18.0 0.00 0.10 0.00 73 1015.6
20260508061558 57 7 8.0 17.0 0.00 0.10 0.00 74 1015.6
20260508060049 56 6 3.0 15.0 0.00 0.10 0.00 76 1015.4
20260508054604 55 356 6.0 22.0 0.00 0.10 0.00 77 1015.5
20260508053037 55 1 10.0 19.0 0.00 0.10 0.00 80 1015.5
20260508051533 54 352 4.0 15.0 0.00 0.10 0.00 82 1015.4
20260508050035 53 346 1.0 11.0 0.00 0.10 0.00 83 1015.4
20260508044526 52 346 0.0 0.0 0.00 0.10 0.00 84 1015.3
20260508043027 52 346 0.0 0.0 0.00 0.10 0.00 84 1015.2
20260508041516 51 346 0.0 12.0 0.00 0.10 0.00 84 1015.1
20260508040013 51 346 0.0 10.0 0.00 0.10 0.00 84 1014.9
20260508034519 51 346 0.0 0.0 0.00 0.10 0.00 84 1014.9
20260508033009 51 346 0.0 1.0 0.00 0.10 0.00 84 1014.9
20260508031507 52 346 0.0 0.0 0.00 0.10 0.00 83 1014.7
20260508030003 52 346 0.0 0.0 0.00 0.10 0.00 83 1014.7
20260508024501 52 346 0.0 0.0 0.00 0.10 0.00 82 1014.5
20260508023101 52 346 0.0 0.0 0.00 0.10 0.00 82 1014.5
20260508021605 52 346 0.0 0.0 0.00 0.10 0.00 82 1014.5
20260508020057 53 346 0.0 0.0 0.00 0.10 0.00 82 1014.5
20260508014555 53 346 0.0 0.0 0.00 0.10 0.00 81 1014.4
20260508013053 53 346 2.0 12.0 0.00 0.10 0.00 80 1014.2
20260508011555 54 346 2.0 12.0 0.00 0.10 0.00 80 1014.1
20260508010050 54 346 0.0 0.0 0.00 0.10 0.00 80 1014.0
20260508004549 55 346 0.0 0.0 0.00 0.10 0.00 79 1014.0
20260508003048 55 346 3.0 16.0 0.00 0.10 0.00 79 1014.0
20260508001546 55 331 0.0 15.0 0.00 0.10 0.00 79 1013.9
20260508000059 55 304 3.0 13.0 0.00 0.10 0.00 80 1013.9
20260507234546 55 275 2.0 11.0 0.00 0.10 0.00 83 1013.9
20260507233040 55 272 0.0 0.0 0.00 0.10 0.00 85 1013.9
20260507231544 54 272 0.0 9.0 0.00 0.10 0.00 87 1014.0
20260507230038 54 267 0.0 5.0 0.00 0.10 0.00 88 1014.0
20260507224534 54 267 0.0 4.0 0.00 0.10 0.00 88 1013.9
20260507223034 54 267 0.0 0.0 0.00 0.10 0.00 88 1013.8
20260507221532 54 267 0.0 0.0 0.00 0.10 0.00 87 1013.8
20260507220031 54 267 0.0 0.0 0.00 0.10 0.00 88 1013.8
20260507214531 54 267 5.0 17.0 0.00 0.10 0.10 88 1013.9
20260507213037 54 267 0.0 17.0 0.00 0.10 0.10 89 1013.9
20260507211541 54 269 10.0 19.0 0.00 0.10 0.10 90 1013.9
20260507210028 54 240 10.0 22.0 0.01 0.10 0.10 90 1013.9
20260507204526 54 244 7.0 22.0 0.03 0.10 0.10 90 1013.9
20260507203025 54 226 9.0 28.0 0.03 0.10 0.10 90 1013.7
20260507201523 54 249 8.0 23.0 0.04 0.10 0.10 90 1013.8
20260507200020 54 250 18.0 32.0 0.03 0.09 0.09 89 1013.6
20260507194517 54 245 8.0 29.0 0.01 0.07 0.07 89 1013.5
20260507193018 55 259 13.0 28.0 0.01 0.07 0.07 89 1013.3